Content
SEND FEEDBACK

Daily
Averages
Monthly
Summary
Indonesia

HASANUDIN, INDONESIA


Home > Asia > Indonesia
Elevation: 46 feet     Latitude: 05 04S     Longitude: 119 33E

WEATHER
 
SELECT A DAY
Number of Records: 196,432;   Date Range: 9/17/97 - 8/10/14
 
SHARE

PRINT THIS DATA

[ ← Previous Day ]
WEATHER ALMANAC - OCTOBER 15, 2013
[ Next Day → ]
[ °C ]   °F
Weather ElementAverageHighLow
Temperature83.4 °F95 °F (11:30 am)75.2 °F (2:00 am)
Dewpoint74.8 °F77 °F (12:30 am)71.6 °F (11:00 am)
Humidity76.4 %100 % (12:30 am)39 % (11:00 am)
Barometer29.85 in29.91 in (8:00 am)29.77 in (3:30 pm)
Wind Speed5.3 mph12.7 mph (11:00 am)
Weather ElementAverage
Visibility5.5 mi
Wind DirectionSE (136.4 °)

Weather ElementTotal
Precipitation---
Cooling Degree Days20.1 (Base 65)
Growing Degree Days35.1 (Base 50)
Averaged from 55 records on October 15, 2013
WEATHER CONDITIONS BREAKOUT
WIND DIRECTION BREAKOUT
WEATHER BY HOUR - OCTOBER 15, 2013
[ °C ]   °F
Local TimeTemperatureDewpointHumidityBarometerVisibilityWind DirectionWind SpeedGust SpeedPrecipitationEventsConditions
12:30 AM77.0 °F77.0 °F100 %29.83 in5.0 miSE (140°)3.5 mphPartly Cloudy
1:00 AM77.0 °F75.2 °F94 %29.83 in5.0 miSouth (170°)3.5 mphPartly Cloudy
1:30 AM77.0 °F75.2 °F94 %29.83 in5.0 miSE (130°)2.3 mphPartly Cloudy
2:00 AM76.0 °F76.0 °F98 %29.84 in5.0 miENE (70°)3.5 mphScattered Clouds
2:00 AM75.2 °F75.2 °F100 %29.83 in5.0 miENE (70°)3.5 mphPartly Cloudy
2:30 AM75.2 °F75.2 °F100 %29.83 in5.0 miVariable2.3 mphPartly Cloudy
3:00 AM75.2 °F75.2 °F100 %29.83 in5.0 miVariable2.3 mphPartly Cloudy
3:30 AM77.0 °F73.4 °F89 %29.83 in5.0 miVariable1.2 mphPartly Cloudy
4:00 AM75.2 °F75.2 °F100 %29.83 in5.0 miVariable1.2 mphPartly Cloudy
4:30 AM75.2 °F75.2 °F100 %29.83 in5.0 miVariable2.3 mphPartly Cloudy
5:00 AM76.0 °F75.0 °F97 %29.86 in5.0 miEast (80°)2.3 mphScattered Clouds
5:00 AM75.2 °F75.2 °F100 %29.86 in5.0 miVariable2.3 mphPartly Cloudy
5:30 AM77.0 °F73.4 °F89 %29.86 in5.0 miVariable1.2 mphPartly Cloudy
6:00 AM75.2 °F75.2 °F100 %29.86 inNorthPartly Cloudy
6:30 AM75.2 °F75.2 °F100 %29.86 in5.6 miESE (110°)4.6 mphPartly Cloudy
7:00 AM77.0 °F75.2 °F94 %29.89 in5.6 miVariable2.3 mphPartly Cloudy
7:30 AM80.6 °F77.0 °F89 %29.89 in5.6 miVariable2.3 mphPartly Cloudy
8:00 AM83.0 °F75.0 °F72 %29.91 in6.0 miEast (90°)2.3 mphScattered Clouds
8:00 AM84.2 °F75.2 °F74 %29.89 in5.6 miVariable2.3 mphPartly Cloudy
8:30 AM86.0 °F73.4 °F66 %29.89 in6.2 miVariable2.3 mphPartly Cloudy
9:00 AM89.6 °F75.2 °F62 %29.89 in6.2 miVariable2.3 mphPartly Cloudy
9:30 AM89.6 °F73.4 °F59 %29.89 in6.2 miVariable2.3 mphPartly Cloudy
10:00 AM89.6 °F75.2 °F62 %29.89 in6.2 miNNE (30°)6.9 mphPartly Cloudy
10:30 AM91.4 °F73.4 °F55 %29.89 in6.2 miNE (50°)8.1 mphPartly Cloudy
11:00 AM94.0 °F72.0 °F39 %29.89 in6.0 miNNE (30°)12.7 mphScattered Clouds
11:00 AM93.2 °F71.6 °F49 %29.89 in6.2 miNNE (30°)12.7 mphPartly Cloudy
11:30 AM95.0 °F73.4 °F49 %29.86 in6.2 miNE (40°)11.5 mphPartly Cloudy
12:00 PM89.6 °F75.2 °F62 %29.86 in6.2 miWNW (290°)11.5 mphPartly Cloudy
12:30 PM89.6 °F77.0 °F66 %29.83 in6.2 miWNW (290°)12.7 mphPartly Cloudy
1:00 PM89.6 °F77.0 °F66 %29.83 in6.2 miWest (260°)11.5 mphPartly Cloudy
1:30 PM89.6 °F75.2 °F62 %29.80 in6.2 miWest (270°)12.7 mphPartly Cloudy
2:00 PM90.0 °F74.0 °F51 %29.82 in6.0 miWest (270°)10.4 mphScattered Clouds
2:00 PM89.6 °F73.4 °F59 %29.80 in5.6 miWest (270°)10.4 mphPartly Cloudy
2:30 PM89.6 °F75.2 °F62 %29.80 in5.6 miWNW (290°)10.4 mphPartly Cloudy
3:00 PM91.4 °F75.2 °F59 %29.80 in5.6 miWNW (290°)9.2 mphPartly Cloudy
3:30 PM89.6 °F73.4 °F59 %29.77 in5.6 miWNW (300°)9.2 mphPartly Cloudy
4:00 PM89.6 °F75.2 °F62 %29.77 in5.6 miWNW (290°)9.2 mphPartly Cloudy
4:30 PM89.6 °F73.4 °F59 %29.77 in6.2 miNW (310°)9.2 mphPartly Cloudy
5:00 PM87.0 °F73.0 °F55 %29.79 in6.0 miWNW (290°)6.9 mphScattered Clouds
5:00 PM87.8 °F73.4 °F62 %29.77 in6.2 miWNW (290°)6.9 mphPartly Cloudy
5:30 PM86.0 °F73.4 °F66 %29.80 in6.2 miWNW (300°)5.8 mphPartly Cloudy
6:00 PM86.0 °F73.4 °F66 %29.80 in5.0 miNW (310°)4.6 mphPartly Cloudy
6:30 PM86.0 °F73.4 °F66 %29.80 in5.0 miNW (320°)4.6 mphPartly Cloudy
7:00 PM84.2 °F73.4 °F70 %29.83 in5.0 miNNW (330°)3.5 mphPartly Cloudy
7:30 PM84.2 °F75.2 °F74 %29.86 in5.0 miNNW (340°)5.8 mphPartly Cloudy
8:00 PM84.0 °F75.0 °F67 %29.86 in5.0 miNorth (350°)4.6 mphScattered Clouds
8:00 PM84.2 °F75.2 °F74 %29.86 in5.0 miNorth (350°)4.6 mphPartly Cloudy
8:30 PM82.4 °F75.2 °F79 %29.86 in5.0 miCalmPartly Cloudy
9:00 PM80.6 °F77.0 °F89 %29.89 in5.0 miEast (80°)2.3 mphScattered Clouds
9:30 PM80.6 °F77.0 °F89 %29.89 in5.0 miNE (50°)3.5 mphPartly Cloudy
10:00 PM80.6 °F77.0 °F89 %29.89 in5.0 miEast (100°)2.3 mphPartly Cloudy
10:30 PM78.8 °F75.2 °F89 %29.89 in5.0 miVariable1.2 mphPartly Cloudy
11:00 PM78.0 °F76.0 °F91 %29.90 in5.0 miESE (110°)2.3 mphScattered Clouds
11:00 PM78.8 °F75.2 °F89 %29.89 in5.0 miESE (110°)2.3 mphPartly Cloudy
11:30 PM78.8 °F75.2 °F89 %29.89 in5.0 miVariable2.3 mphPartly Cloudy
Hourly data recorded from WAAA, located miles away from Hasanudin, Indonesia







STORIES FROM OUR PARTNERS